�������l�o���
Date,Time,MP-1(��Sv/h),MP-2(��Sv/h),MP-3(��Sv/h),MP-4(��Sv/h),MP-5(��Sv/h),MP-6(��Sv/h),MP-7(��Sv/h),MP-8(��Sv/h),����,����(m/s),���J
2024/05/21,00:00,0.486,0.741,0.473,0.910,0.663,0.308,0.540,0.506,�k�k��,1.2,��
2024/05/21,00:10,0.486,0.742,0.471,0.912,0.664,0.310,0.541,0.506,�k�k��,0.8,��
2024/05/21,00:20,0.486,0.741,0.472,0.911,0.664,0.310,0.540,0.506,�k��,2.2,��
2024/05/21,00:30,0.484,0.742,0.472,0.912,0.663,0.309,0.541,0.505,�k�k��,3.9,��
2024/05/21,00:40,0.486,0.740,0.471,0.913,0.662,0.309,0.540,0.506,�k��,4.1,��
2024/05/21,00:50,0.485,0.743,0.473,0.911,0.663,0.307,0.540,0.506,�k�k��,3.8,��
2024/05/21,01:00,0.485,0.739,0.471,0.911,0.663,0.309,0.540,0.507,�k�k��,3.5,��
2024/05/21,01:10,0.485,0.742,0.473,0.913,0.664,0.309,0.541,0.506,�k�k��,2.9,��
2024/05/21,01:20,0.484,0.741,0.472,0.912,0.663,0.308,0.541,0.505,�k,2.0,��
2024/05/21,01:30,0.487,0.740,0.472,0.911,0.662,0.308,0.541,0.508,�k,2.0,��
2024/05/21,01:40,0.487,0.740,0.472,0.911,0.663,0.309,0.540,0.505,�k�k��,1.5,��
2024/05/21,01:50,0.486,0.742,0.472,0.910,0.664,0.309,0.541,0.505,�k��,1.2,��
2024/05/21,02:00,0.484,0.742,0.471,0.912,0.663,0.309,0.540,0.505,�k��,3.2,��
2024/05/21,02:10,0.486,0.743,0.472,0.911,0.665,0.309,0.539,0.505,���k��,1.7,��
2024/05/21,02:20,0.485,0.741,0.472,0.910,0.666,0.309,0.540,0.506,���k��,1.7,��
2024/05/21,02:30,0.486,0.741,0.473,0.912,0.663,0.309,0.539,0.507,��,1.9,��
2024/05/21,02:40,0.484,0.742,0.472,0.914,0.664,0.310,0.541,0.507,��쐼,0.8,��
2024/05/21,02:50,0.486,0.742,0.472,0.910,0.665,0.309,0.538,0.507,�쐼,0.8,��
2024/05/21,03:00,0.486,0.741,0.473,0.914,0.664,0.308,0.541,0.507,��,3.4,��
2024/05/21,03:10,0.485,0.741,0.473,0.913,0.664,0.309,0.541,0.507,���k��,5.8,��
2024/05/21,03:20,0.485,0.742,0.471,0.911,0.664,0.309,0.539,0.506,���k��,3.9,��
2024/05/21,03:30,0.484,0.742,0.473,0.911,0.663,0.310,0.540,0.507,���k��,3.6,��
2024/05/21,03:40,0.486,0.742,0.472,0.914,0.664,0.309,0.541,0.508,���k��,2.0,��
2024/05/21,03:50,0.486,0.741,0.472,0.912,0.664,0.310,0.541,0.508,���쐼,2.0,��
2024/05/21,04:00,0.486,0.743,0.472,0.912,0.664,0.309,0.539,0.504,��,2.0,��
2024/05/21,04:10,0.484,0.739,0.472,0.913,0.663,0.308,0.539,0.507,���k��,4.5,��
2024/05/21,04:20,0.486,0.740,0.472,0.913,0.665,0.309,0.539,0.507,�k��,4.7,��
2024/05/21,04:30,0.485,0.742,0.474,0.913,0.663,0.308,0.541,0.506,���k��,5.4,��
2024/05/21,04:40,0.485,0.742,0.472,0.912,0.664,0.307,0.541,0.506,��,2.6,��
2024/05/21,04:50,0.484,0.741,0.472,0.913,0.665,0.309,0.539,0.507,�쐼,2.9,��
2024/05/21,05:00,0.486,0.742,0.473,0.912,0.664,0.308,0.541,0.506,�쐼,1.2,��
2024/05/21,05:10,0.485,0.743,0.472,0.912,0.663,0.309,0.541,0.508,�쐼,1.5,��
2024/05/21,05:20,0.485,0.742,0.473,0.913,0.665,0.308,0.542,0.506,-,CALM,��
2024/05/21,05:30,0.486,0.743,0.472,0.913,0.663,0.309,0.541,0.506,��,0.6,��
2024/05/21,05:40,0.486,0.742,0.473,0.912,0.664,0.309,0.540,0.506,�k��,1.2,��
2024/05/21,05:50,0.486,0.743,0.474,0.913,0.664,0.309,0.541,0.508,��,1.4,��
2024/05/21,06:00,0.484,0.743,0.473,0.915,0.665,0.309,0.541,0.507,���k��,2.0,��
2024/05/21,06:10,0.487,0.744,0.473,0.913,0.666,0.309,0.540,0.508,���k��,2.6,��
2024/05/21,06:20,0.486,0.744,0.474,0.911,0.664,0.309,0.542,0.507,���k��,0.8,��
2024/05/21,06:30,0.486,0.743,0.472,0.915,0.665,0.308,0.540,0.505,�k��,0.6,��
2024/05/21,06:40,0.487,0.744,0.473,0.915,0.665,0.308,0.540,0.509,�k��,0.9,��
2024/05/21,06:50,0.485,0.741,0.473,0.914,0.664,0.309,0.542,0.509,-,CALM,��
2024/05/21,07:00,0.486,0.743,0.472,0.915,0.664,0.308,0.540,0.508,��,2.6,��
2024/05/21,07:10,0.484,0.740,0.471,0.914,0.664,0.307,0.539,0.507,���k��,6.2,��
2024/05/21,07:20,0.484,0.739,0.473,0.916,0.663,0.309,0.540,0.508,���k��,6.7,��
2024/05/21,07:30,0.485,0.743,0.475,0.915,0.661,0.308,0.541,0.507,���k��,5.5,��
2024/05/21,07:40,0.486,0.743,0.474,0.914,0.664,0.308,0.540,0.507,���k��,8.0,��
2024/05/21,07:50,0.487,0.742,0.471,0.915,0.663,0.308,0.539,0.507,��,8.5,��
2024/05/21,08:00,0.487,0.740,0.473,0.915,0.666,0.307,0.539,0.505,���k��,8.6,��
2024/05/21,08:10,0.488,0.743,0.473,0.914,0.664,0.308,0.539,0.505,��,9.2,��
2024/05/21,08:20,0.487,0.743,0.473,0.915,0.666,0.307,0.541,0.506,��,8.6,��
2024/05/21,08:30,0.488,0.743,0.475,0.914,0.666,0.307,0.540,0.506,���k��,9.7,��
2024/05/21,08:40,0.488,0.744,0.474,0.913,0.665,0.307,0.540,0.507,��,8.1,��
2024/05/21,08:50,0.487,0.745,0.474,0.914,0.665,0.308,0.541,0.506,���k��,11.6,��
2024/05/21,09:00,0.488,0.743,0.473,0.918,0.665,0.307,0.541,0.506,���k��,9.0,��
2024/05/21,09:10,0.486,0.747,0.473,0.916,0.666,0.309,0.541,0.507,���k��,9.7,��
2024/05/21,09:20,0.487,0.745,0.472,0.917,0.665,0.308,0.541,0.507,���k��,7.0,��
2024/05/21,09:30,0.487,0.746,0.473,0.917,0.666,0.307,0.542,0.506,���k��,7.6,��
2024/05/21,09:40,0.488,0.746,0.474,0.916,0.666,0.307,0.540,0.508,��,4.3,��
2024/05/21,09:50,0.489,0.746,0.474,0.917,0.667,0.309,0.541,0.507,���k��,5.4,��
2024/05/21,10:00,0.490,0.745,0.474,0.918,0.667,0.308,0.539,0.508,��,5.2,��
2024/05/21,10:10,0.489,0.745,0.474,0.917,0.667,0.309,0.540,0.509,�쐼,0.9,��
2024/05/21,10:20,0.489,0.746,0.474,0.918,0.667,0.308,0.539,0.509,���쐼,3.1,��
2024/05/21,10:30,0.489,0.748,0.475,0.916,0.668,0.308,0.540,0.509,���k��,2.3,��
2024/05/21,10:40,0.489,0.750,0.475,0.919,0.669,0.308,0.541,0.509,���k��,3.7,��
2024/05/21,10:50,0.490,0.749,0.476,0.919,0.668,0.308,0.540,0.509,�k�k��,4.5,��
2024/05/21,11:00,0.490,0.750,0.474,0.918,0.670,0.310,0.540,0.508,�k��,4.3,��
2024/05/21,11:10,0.490,0.749,0.475,0.917,0.668,0.309,0.542,0.509,�k��,5.5,��
2024/05/21,11:20,0.490,0.750,0.477,0.918,0.669,0.310,0.543,0.509,�k��,4.9,��
2024/05/21,11:30,0.489,0.751,0.475,0.920,0.670,0.310,0.542,0.509,���k��,6.4,��
2024/05/21,11:40,0.492,0.749,0.476,0.918,0.671,0.310,0.542,0.509,�k��,10.3,��
2024/05/21,11:50,0.490,0.750,0.476,0.920,0.670,0.310,0.540,0.509,�k��,9.5,��
2024/05/21,12:00,0.492,0.751,0.474,0.919,0.671,0.310,0.541,0.509,���k��,9.3,��
2024/05/21,12:10,0.492,0.753,0.476,0.921,0.672,0.309,0.542,0.510,���k��,9.5,��
2024/05/21,12:20,0.492,0.751,0.476,0.923,0.672,0.310,0.542,0.510,��,7.3,��
2024/05/21,12:30,0.491,0.753,0.475,0.921,0.672,0.309,0.543,0.508,���k��,6.9,��
2024/05/21,12:40,0.492,0.753,0.477,0.921,0.674,0.309,0.542,0.509,��,6.7,��
2024/05/21,12:50,0.491,0.754,0.476,0.921,0.673,0.312,0.541,0.510,���k��,9.6,��
2024/05/21,13:00,0.493,0.753,0.478,0.924,0.673,0.309,0.543,0.511,���k��,9.3,��
2024/05/21,13:10,0.493,0.755,0.478,0.924,0.675,0.311,0.543,0.509,���k��,7.5,��
2024/05/21,13:20,0.493,0.754,0.478,0.923,0.672,0.311,0.543,0.510,���k��,8.7,��
2024/05/21,13:30,0.494,0.753,0.479,0.922,0.674,0.312,0.543,0.510,���k��,5.9,��
2024/05/21,13:40,0.494,0.755,0.478,0.924,0.674,0.309,0.543,0.510,���k��,10.0,��
2024/05/21,13:50,0.493,0.755,0.479,0.925,0.674,0.311,0.544,0.511,���k��,8.1,��
2024/05/21,14:00,0.493,0.754,0.478,0.924,0.673,0.310,0.543,0.511,���k��,12.4,��
2024/05/21,14:10,0.495,0.753,0.479,0.925,0.675,0.310,0.544,0.510,���k��,7.3,��
2024/05/21,14:20,0.494,0.754,0.478,0.924,0.677,0.311,0.544,0.510,���k��,11.1,��
2024/05/21,14:30,0.491,0.755,0.478,0.923,0.676,0.310,0.544,0.512,���k��,8.9,��
2024/05/21,14:40,0.495,0.754,0.476,0.925,0.676,0.310,0.543,0.512,���k��,11.3,��
2024/05/21,14:50,0.496,0.757,0.478,0.926,0.676,0.311,0.542,0.510,���k��,9.2,��
2024/05/21,15:00,0.495,0.756,0.479,0.927,0.676,0.310,0.542,0.510,���k��,8.1,��
2024/05/21,15:10,0.494,0.756,0.478,0.929,0.677,0.310,0.542,0.510,�k��,6.4,��
2024/05/21,15:20,0.495,0.757,0.480,0.927,0.676,0.312,0.544,0.510,���k��,6.5,��
2024/05/21,15:30,0.494,0.754,0.479,0.927,0.678,0.310,0.543,0.510,�k��,8.8,��
2024/05/21,15:40,0.494,0.755,0.479,0.927,0.676,0.312,0.544,0.511,�k��,6.6,��
2024/05/21,15:50,0.494,0.757,0.479,0.927,0.676,0.310,0.541,0.512,�k��,6.7,��
2024/05/21,16:00,0.494,0.756,0.478,0.926,0.676,0.311,0.544,0.512,�k��,7.5,��
2024/05/21,16:10,0.495,0.756,0.478,0.928,0.677,0.310,0.543,0.513,�k��,9.5,��
2024/05/21,16:20,0.495,0.757,0.478,0.928,0.676,0.311,0.543,0.511,�k�k��,8.8,��
2024/05/21,16:30,0.494,0.756,0.477,0.929,0.677,0.310,0.542,0.512,�k��,10.7,��
2024/05/21,16:40,0.495,0.758,0.480,0.930,0.679,0.310,0.542,0.513,�k��,8.9,��
2024/05/21,16:50,0.496,0.758,0.480,0.928,0.677,0.309,0.543,0.512,�k��,8.5,��
2024/05/21,17:00,0.494,0.757,0.478,0.929,0.677,0.311,0.543,0.511,�k��,8.6,��
2024/05/21,17:10,0.494,0.758,0.479,0.928,0.677,0.311,0.542,0.511,�k��,9.8,��
2024/05/21,17:20,0.495,0.756,0.479,0.929,0.676,0.310,0.544,0.510,�k��,7.7,��
2024/05/21,17:30,0.495,0.755,0.478,0.929,0.676,0.310,0.542,0.511,�k��,8.4,��
2024/05/21,17:40,0.494,0.759,0.478,0.930,0.677,0.311,0.542,0.511,�k�k��,10.0,��
2024/05/21,17:50,0.493,0.758,0.478,0.928,0.679,0.312,0.543,0.512,�k�k��,8.6,��
2024/05/21,18:00,0.494,0.760,0.478,0.930,0.675,0.309,0.542,0.512,�k��,8.9,��
2024/05/21,18:10,0.494,0.758,0.477,0.931,0.676,0.310,0.544,0.514,�k��,9.0,��
2024/05/21,18:20,0.493,0.758,0.477,0.932,0.677,0.310,0.542,0.514,�k�k��,10.2,��
2024/05/21,18:30,0.494,0.758,0.477,0.930,0.678,0.309,0.541,0.512,�k��,9.4,��
2024/05/21,18:40,0.494,0.760,0.476,0.933,0.678,0.310,0.542,0.513,�k��,9.4,��
2024/05/21,18:50,0.496,0.760,0.477,0.933,0.678,0.311,0.541,0.512,�k��,8.8,��
2024/05/21,19:00,0.496,0.758,0.476,0.935,0.678,0.311,0.541,0.513,�k��,7.4,��
2024/05/21,19:10,0.497,0.760,0.478,0.934,0.677,0.310,0.541,0.512,�k��,8.3,��
2024/05/21,19:20,0.495,0.762,0.478,0.935,0.680,0.312,0.541,0.512,�k��,8.0,��
2024/05/21,19:30,0.497,0.761,0.478,0.933,0.679,0.310,0.541,0.513,�k��,9.6,��
2024/05/21,19:40,0.498,0.759,0.480,0.934,0.680,0.312,0.541,0.512,�k��,8.2,��
2024/05/21,19:50,0.496,0.761,0.479,0.934,0.680,0.310,0.542,0.513,�k��,7.0,��
2024/05/21,20:00,0.497,0.761,0.480,0.934,0.680,0.313,0.542,0.514,�k��,5.9,��
2024/05/21,20:10,0.496,0.759,0.480,0.934,0.680,0.312,0.541,0.511,�k��,6.1,��
2024/05/21,20:20,0.495,0.761,0.480,0.934,0.680,0.311,0.544,0.513,�k��,6.8,��
2024/05/21,20:30,0.498,0.760,0.480,0.936,0.680,0.311,0.543,0.511,�k��,5.1,��
2024/05/21,20:40,0.496,0.759,0.480,0.935,0.680,0.311,0.542,0.511,�k��,4.6,��
2024/05/21,20:50,0.497,0.759,0.480,0.934,0.679,0.311,0.544,0.511,���k��,3.4,��
2024/05/21,21:00,0.495,0.760,0.480,0.935,0.679,0.312,0.543,0.512,�k��,4.9,��
2024/05/21,21:10,0.496,0.761,0.479,0.935,0.678,0.311,0.544,0.510,�k��,5.7,��
2024/05/21,21:20,0.495,0.758,0.479,0.933,0.682,0.311,0.543,0.510,�k��,5.8,��
2024/05/21,21:30,0.495,0.760,0.479,0.933,0.680,0.311,0.542,0.511,�k��,5.8,��
2024/05/21,21:40,0.496,0.760,0.479,0.934,0.681,0.313,0.543,0.510,�k��,7.0,��
2024/05/21,21:50,0.495,0.761,0.480,0.935,0.680,0.310,0.543,0.511,�k��,6.7,��
2024/05/21,22:00,0.496,0.759,0.481,0.938,0.681,0.311,0.544,0.509,�k��,7.4,��
2024/05/21,22:10,0.497,0.760,0.480,0.936,0.680,0.312,0.543,0.512,�k��,7.6,��
2024/05/21,22:20,0.497,0.759,0.479,0.934,0.680,0.312,0.542,0.511,�k��,8.1,��
2024/05/21,22:30,0.496,0.760,0.480,0.934,0.678,0.311,0.545,0.511,�k��,8.4,��
2024/05/21,22:40,0.495,0.759,0.480,0.933,0.680,0.311,0.544,0.510,�k��,8.2,��
2024/05/21,22:50,0.495,0.759,0.479,0.936,0.679,0.310,0.543,0.510,�k��,7.4,��
2024/05/21,23:00,0.495,0.760,0.480,0.934,0.680,0.312,0.544,0.511,�k��,6.5,��
2024/05/21,23:10,0.496,0.760,0.480,0.935,0.679,0.311,0.545,0.510,�k��,6.3,��
2024/05/21,23:20,0.496,0.758,0.480,0.937,0.680,0.311,0.546,0.511,�k��,5.5,��
2024/05/21,23:30,0.497,0.761,0.479,0.936,0.680,0.311,0.543,0.510,�k��,4.8,��
2024/05/21,23:40,0.495,0.760,0.479,0.934,0.679,0.312,0.545,0.512,�k��,4.7,��
2024/05/21,23:50,0.496,0.758,0.479,0.936,0.681,0.311,0.545,0.510,�k��,4.2,��
